Time,TemperatureF,DewpointF,PressureIn,WindDirection,WindDirectionDegrees,WindSpeedMPH,WindSpeedGustMPH,Humidity,HourlyPrecipIn,Conditions,Clouds,dailyrainin,SoftwareType,DateUTC
2013-01-02 00:03:00,77.0,-99.9,30.04,ESE,114,7.0,9.0,-999,-99.99,,,-99.99,,2013-01-02 04:03:00,
2013-01-02 00:12:00,77.0,-99.9,30.04,ESE,113,7.0,9.0,-999,-99.99,,,-99.99,,2013-01-02 04:12:00,
2013-01-02 00:22:00,78.0,-99.9,30.03,ESE,109,7.0,9.0,-999,-99.99,,,-99.99,,2013-01-02 04:22:00,
2013-01-02 00:33:00,77.0,-99.9,30.03,ESE,107,8.0,9.0,-999,-99.99,,,-99.99,,2013-01-02 04:33:00,
2013-01-02 00:42:00,78.0,-99.9,30.03,ESE,111,8.0,9.0,-999,-99.99,,,-99.99,,2013-01-02 04:42:00,
2013-01-02 00:53:00,78.0,-99.9,30.03,ESE,104,9.0,11.0,-999,-99.99,,,-99.99,,2013-01-02 04:53:00,
2013-01-02 01:03:00,78.0,-99.9,30.03,ESE,112,9.0,11.0,-999,-99.99,,,-99.99,,2013-01-02 05:03:00,
2013-01-02 01:12:00,78.0,-99.9,30.03,ESE,120,7.0,9.0,-999,-99.99,,,-99.99,,2013-01-02 05:12:00,
2013-01-02 01:22:00,77.0,-99.9,30.02,SE,129,7.0,9.0,-999,-99.99,,,-99.99,,2013-01-02 05:22:00,
2013-01-02 01:33:00,77.0,-99.9,30.02,ESE,114,6.0,8.0,-999,-99.99,,,-99.99,,2013-01-02 05:33:00,
2013-01-02 01:43:00,77.0,-99.9,30.01,ESE,114,8.0,9.0,-999,-99.99,,,-99.99,,2013-01-02 05:43:00,
2013-01-02 01:53:00,77.0,-99.9,30.01,ESE,106,8.0,9.0,-999,-99.99,,,-99.99,,2013-01-02 05:53:00,
2013-01-02 02:02:00,77.0,-99.9,30.01,East,101,9.0,11.0,-999,-99.99,,,-99.99,,2013-01-02 06:02:00,
2013-01-02 02:12:00,78.0,-99.9,30.00,ESE,108,8.0,10.0,-999,-99.99,,,-99.99,,2013-01-02 06:12:00,
2013-01-02 02:22:00,78.0,-99.9,30.00,ESE,123,9.0,12.0,-999,-99.99,,,-99.99,,2013-01-02 06:22:00,
2013-01-02 02:33:00,77.0,-99.9,29.99,SE,134,8.0,9.0,-999,-99.99,,,-99.99,,2013-01-02 06:33:00,
2013-01-02 02:43:00,78.0,-99.9,29.99,SE,124,8.0,9.0,-999,-99.99,,,-99.99,,2013-01-02 06:43:00,
2013-01-02 02:53:00,77.0,-99.9,29.99,SE,145,7.0,9.0,-999,-99.99,,,-99.99,,2013-01-02 06:53:00,
2013-01-02 03:02:00,77.0,-99.9,29.99,SE,143,7.0,8.0,-999,-99.99,,,-99.99,,2013-01-02 07:02:00,
2013-01-02 03:12:00,77.0,-99.9,29.99,SE,132,8.0,10.0,-999,-99.99,,,-99.99,,2013-01-02 07:12:00,
2013-01-02 03:22:00,77.0,-99.9,29.98,ESE,121,9.0,10.0,-999,-99.99,,,-99.99,,2013-01-02 07:22:00,
2013-01-02 03:32:00,78.0,-99.9,29.98,ESE,115,10.0,14.0,-999,-99.99,,,-99.99,,2013-01-02 07:32:00,
2013-01-02 03:42:00,78.0,-99.9,29.98,East,85,16.0,19.0,-999,-99.99,,,-99.99,,2013-01-02 07:42:00,
2013-01-02 03:52:00,79.0,-99.9,29.98,East,86,16.0,19.0,-999,-99.99,,,-99.99,,2013-01-02 07:52:00,
2013-01-02 04:02:00,79.0,-99.9,29.97,East,85,17.0,19.0,-999,-99.99,,,-99.99,,2013-01-02 08:02:00,
2013-01-02 04:12:00,79.0,-99.9,29.97,East,86,17.0,22.0,-999,-99.99,,,-99.99,,2013-01-02 08:12:00,
2013-01-02 04:22:00,79.0,-99.9,29.97,East,94,16.0,19.0,-999,-99.99,,,-99.99,,2013-01-02 08:22:00,
2013-01-02 04:32:00,79.0,-99.9,29.97,East,92,16.0,19.0,-999,-99.99,,,-99.99,,2013-01-02 08:32:00,
2013-01-02 04:42:00,79.0,-99.9,29.97,East,86,16.0,20.0,-999,-99.99,,,-99.99,,2013-01-02 08:42:00,
2013-01-02 04:53:00,79.0,-99.9,29.97,East,84,17.0,20.0,-999,-99.99,,,-99.99,,2013-01-02 08:53:00,
2013-01-02 05:02:00,79.0,-99.9,29.98,East,91,14.0,20.0,-999,-99.99,,,-99.99,,2013-01-02 09:02:00,
2013-01-02 05:12:00,79.0,-99.9,29.98,East,88,17.0,18.0,-999,-99.99,,,-99.99,,2013-01-02 09:12:00,
2013-01-02 05:22:00,79.0,-99.9,29.98,East,83,17.0,21.0,-999,-99.99,,,-99.99,,2013-01-02 09:22:00,
2013-01-02 05:32:00,79.0,-99.9,29.98,East,82,17.0,22.0,-999,-99.99,,,-99.99,,2013-01-02 09:32:00,
2013-01-02 05:43:00,78.0,-99.9,29.98,ESE,113,13.0,19.0,-999,-99.99,,,-99.99,,2013-01-02 09:43:00,
2013-01-02 05:53:00,78.0,-99.9,29.99,ESE,107,12.0,16.0,-999,-99.99,,,-99.99,,2013-01-02 09:53:00,
2013-01-02 06:02:00,78.0,-99.9,29.99,ESE,104,12.0,15.0,-999,-99.99,,,-99.99,,2013-01-02 10:02:00,
2013-01-02 06:12:00,78.0,-99.9,29.99,East,100,12.0,15.0,-999,-99.99,,,-99.99,,2013-01-02 10:12:00,
2013-01-02 06:22:00,78.0,-99.9,29.99,ESE,103,13.0,17.0,-999,-99.99,,,-99.99,,2013-01-02 10:22:00,
2013-01-02 06:32:00,78.0,-99.9,29.99,ESE,104,13.0,16.0,-999,-99.99,,,-99.99,,2013-01-02 10:32:00,
2013-01-02 06:43:00,78.0,-99.9,30.00,East,101,13.0,15.0,-999,-99.99,,,-99.99,,2013-01-02 10:43:00,
2013-01-02 06:53:00,78.0,-99.9,30.00,East,99,13.0,17.0,-999,-99.99,,,-99.99,,2013-01-02 10:53:00,
2013-01-02 07:02:00,78.0,-99.9,30.00,ESE,102,12.0,15.0,-999,-99.99,,,-99.99,,2013-01-02 11:02:00,
2013-01-02 07:12:00,78.0,-99.9,30.01,ESE,107,10.0,14.0,-999,-99.99,,,-99.99,,2013-01-02 11:12:00,
2013-01-02 07:22:00,78.0,-99.9,30.01,ESE,116,10.0,12.0,-999,-99.99,,,-99.99,,2013-01-02 11:22:00,
2013-01-02 07:33:00,78.0,-99.9,30.01,ESE,109,11.0,14.0,-999,-99.99,,,-99.99,,2013-01-02 11:33:00,
2013-01-02 07:43:00,78.0,-99.9,30.02,ESE,120,10.0,11.0,-999,-99.99,,,-99.99,,2013-01-02 11:43:00,
2013-01-02 07:53:00,77.0,-99.9,30.02,ESE,118,9.0,12.0,-999,-99.99,,,-99.99,,2013-01-02 11:53:00,
2013-01-02 08:03:00,78.0,-99.9,30.02,SE,130,9.0,11.0,-999,-99.99,,,-99.99,,2013-01-02 12:03:00,
2013-01-02 08:12:00,77.0,-99.9,30.03,SE,133,7.0,9.0,-999,-99.99,,,-99.99,,2013-01-02 12:12:00,
2013-01-02 08:22:00,77.0,-99.9,30.04,SE,129,9.0,10.0,-999,-99.99,,,-99.99,,2013-01-02 12:22:00,
2013-01-02 08:33:00,78.0,-99.9,30.04,SE,130,9.0,10.0,-999,-99.99,,,-99.99,,2013-01-02 12:33:00,
2013-01-02 08:43:00,78.0,-99.9,30.04,SE,146,8.0,10.0,-999,-99.99,,,-99.99,,2013-01-02 12:43:00,
2013-01-02 08:53:00,78.0,-99.9,30.05,SSE,149,8.0,10.0,-999,-99.99,,,-99.99,,2013-01-02 12:53:00,
2013-01-02 09:03:00,78.0,-99.9,30.05,SE,146,8.0,10.0,-999,-99.99,,,-99.99,,2013-01-02 13:03:00,
2013-01-02 09:13:00,79.0,-99.9,30.05,SE,143,9.0,12.0,-999,-99.99,,,-99.99,,2013-01-02 13:13:00,
2013-01-02 09:22:00,79.0,-99.9,30.05,ESE,121,11.0,14.0,-999,-99.99,,,-99.99,,2013-01-02 13:22:00,
2013-01-02 09:33:00,79.0,-99.9,30.05,ESE,119,11.0,15.0,-999,-99.99,,,-99.99,,2013-01-02 13:33:00,
2013-01-02 09:43:00,79.0,-99.9,30.05,ESE,119,11.0,15.0,-999,-99.99,,,-99.99,,2013-01-02 13:43:00,
2013-01-02 09:53:00,79.0,-99.9,30.06,ESE,119,12.0,18.0,-999,-99.99,,,-99.99,,2013-01-02 13:53:00,
2013-01-02 10:03:00,80.0,-99.9,30.06,ESE,119,13.0,18.0,-999,-99.99,,,-99.99,,2013-01-02 14:03:00,
2013-01-02 10:12:00,80.0,-99.9,30.06,ESE,119,14.0,18.0,-999,-99.99,,,-99.99,,2013-01-02 14:12:00,
2013-01-02 10:23:00,79.0,-99.9,30.06,ESE,113,16.0,19.0,-999,-99.99,,,-99.99,,2013-01-02 14:23:00,
2013-01-02 10:33:00,80.0,-99.9,30.06,SE,128,13.0,18.0,-999,-99.99,,,-99.99,,2013-01-02 14:33:00,
2013-01-02 10:43:00,80.0,-99.9,30.06,ESE,107,12.0,20.0,-999,-99.99,,,-99.99,,2013-01-02 14:43:00,
2013-01-02 10:53:00,80.0,-99.9,30.06,East,80,11.0,18.0,-999,-99.99,,,-99.99,,2013-01-02 14:53:00,
2013-01-02 11:03:00,80.0,-99.9,30.06,ESE,112,16.0,19.0,-999,-99.99,,,-99.99,,2013-01-02 15:03:00,
2013-01-02 11:12:00,80.0,-99.9,30.06,East,94,14.0,19.0,-999,-99.99,,,-99.99,,2013-01-02 15:12:00,
2013-01-02 11:23:00,80.0,-99.9,30.06,East,98,16.0,19.0,-999,-99.99,,,-99.99,,2013-01-02 15:23:00,
2013-01-02 11:33:00,80.0,-99.9,30.06,East,88,14.0,20.0,-999,-99.99,,,-99.99,,2013-01-02 15:33:00,
2013-01-02 11:43:00,81.0,-99.9,30.05,ESE,110,16.0,21.0,-999,-99.99,,,-99.99,,2013-01-02 15:43:00,
2013-01-02 11:53:00,81.0,-99.9,30.05,East,101,15.0,18.0,-999,-99.99,,,-99.99,,2013-01-02 15:53:00,
2013-01-02 12:03:00,80.0,-99.9,30.05,East,81,15.0,18.0,-999,-99.99,,,-99.99,,2013-01-02 16:03:00,
2013-01-02 12:13:00,81.0,-99.9,30.05,East,90,15.0,19.0,-999,-99.99,,,-99.99,,2013-01-02 16:13:00,
2013-01-02 12:22:00,80.0,-99.9,30.04,East,91,18.0,22.0,-999,-99.99,,,-99.99,,2013-01-02 16:22:00,
2013-01-02 12:33:00,81.0,-99.9,30.04,ENE,76,15.0,20.0,-999,-99.99,,,-99.99,,2013-01-02 16:33:00,
2013-01-02 12:43:00,81.0,-99.9,30.04,ENE,76,13.0,18.0,-999,-99.99,,,-99.99,,2013-01-02 16:43:00,
2013-01-02 12:54:00,80.0,-99.9,30.03,East,89,15.0,20.0,-999,-99.99,,,-99.99,,2013-01-02 16:54:00,
2013-01-02 13:04:00,81.0,-99.9,30.03,East,88,16.0,20.0,-999,-99.99,,,-99.99,,2013-01-02 17:04:00,
2013-01-02 13:13:00,81.0,-99.9,30.03,East,95,11.0,17.0,-999,-99.99,,,-99.99,,2013-01-02 17:13:00,
2013-01-02 13:23:00,81.0,-99.9,30.02,East,87,13.0,19.0,-999,-99.99,,,-99.99,,2013-01-02 17:23:00,
2013-01-02 13:33:00,81.0,-99.9,30.02,East,83,13.0,19.0,-999,-99.99,,,-99.99,,2013-01-02 17:33:00,
2013-01-02 13:43:00,81.0,-99.9,30.02,East,80,13.0,21.0,-999,-99.99,,,-99.99,,2013-01-02 17:43:00,
2013-01-02 13:54:00,81.0,-99.9,30.01,ENE,77,16.0,19.0,-999,-99.99,,,-99.99,,2013-01-02 17:54:00,
2013-01-02 14:03:00,81.0,-99.9,30.01,ENE,78,16.0,22.0,-999,-99.99,,,-99.99,,2013-01-02 18:03:00,
2013-01-02 14:13:00,81.0,-99.9,30.00,East,79,15.0,20.0,-999,-99.99,,,-99.99,,2013-01-02 18:13:00,
2013-01-02 14:23:00,81.0,-99.9,30.00,East,86,14.0,20.0,-999,-99.99,,,-99.99,,2013-01-02 18:23:00,
2013-01-02 14:33:00,81.0,-99.9,30.00,East,87,17.0,23.0,-999,-99.99,,,-99.99,,2013-01-02 18:33:00,
2013-01-02 14:43:00,81.0,-99.9,29.99,East,89,14.0,21.0,-999,-99.99,,,-99.99,,2013-01-02 18:43:00,
2013-01-02 14:53:00,81.0,-99.9,29.99,East,83,11.0,19.0,-999,-99.99,,,-99.99,,2013-01-02 18:53:00,
2013-01-02 15:03:00,81.0,-99.9,29.99,ENE,77,15.0,19.0,-999,-99.99,,,-99.99,,2013-01-02 19:03:00,
2013-01-02 15:13:00,81.0,-99.9,29.99,East,83,12.0,19.0,-999,-99.99,,,-99.99,,2013-01-02 19:13:00,
2013-01-02 15:23:00,81.0,-99.9,30.00,ENE,78,11.0,21.0,-999,-99.99,,,-99.99,,2013-01-02 19:23:00,
2013-01-02 15:33:00,81.0,-99.9,30.00,East,81,13.0,17.0,-999,-99.99,,,-99.99,,2013-01-02 19:33:00,
2013-01-02 15:43:00,81.0,-99.9,30.00,East,83,16.0,20.0,-999,-99.99,,,-99.99,,2013-01-02 19:43:00,
2013-01-02 15:53:00,81.0,-99.9,29.99,East,85,14.0,20.0,-999,-99.99,,,-99.99,,2013-01-02 19:53:00,
2013-01-02 16:03:00,81.0,-99.9,29.99,East,83,14.0,21.0,-999,-99.99,,,-99.99,,2013-01-02 20:03:00,
2013-01-02 16:12:00,81.0,-99.9,29.99,East,86,12.0,17.0,-999,-99.99,,,-99.99,,2013-01-02 20:12:00,
2013-01-02 16:23:00,81.0,-99.9,29.99,ENE,77,15.0,19.0,-999,-99.99,,,-99.99,,2013-01-02 20:23:00,
2013-01-02 16:33:00,81.0,-99.9,29.99,East,86,12.0,17.0,-999,-99.99,,,-99.99,,2013-01-02 20:33:00,
2013-01-02 16:42:00,80.0,-99.9,29.99,East,84,11.0,16.0,-999,-99.99,,,-99.99,,2013-01-02 20:42:00,
2013-01-02 16:53:00,81.0,-99.9,29.99,ENE,75,11.0,15.0,-999,-99.99,,,-99.99,,2013-01-02 20:53:00,
2013-01-02 17:03:00,80.0,-99.9,29.99,East,80,9.0,17.0,-999,-99.99,,,-99.99,,2013-01-02 21:03:00,
2013-01-02 17:13:00,80.0,-99.9,29.99,East,84,13.0,18.0,-999,-99.99,,,-99.99,,2013-01-02 21:13:00,
2013-01-02 17:23:00,80.0,-99.9,29.99,East,88,16.0,19.0,-999,-99.99,,,-99.99,,2013-01-02 21:23:00,
2013-01-02 17:33:00,80.0,-99.9,29.99,East,87,14.0,18.0,-999,-99.99,,,-99.99,,2013-01-02 21:33:00,
2013-01-02 17:43:00,80.0,-99.9,29.99,East,88,16.0,20.0,-999,-99.99,,,-99.99,,2013-01-02 21:43:00,
2013-01-02 17:53:00,80.0,-99.9,30.00,East,86,16.0,19.0,-999,-99.99,,,-99.99,,2013-01-02 21:53:00,
2013-01-02 18:03:00,80.0,-99.9,30.00,East,95,13.0,19.0,-999,-99.99,,,-99.99,,2013-01-02 22:03:00,
2013-01-02 18:13:00,80.0,-99.9,30.00,East,88,13.0,18.0,-999,-99.99,,,-99.99,,2013-01-02 22:13:00,
2013-01-02 18:22:00,80.0,-99.9,30.00,East,84,14.0,16.0,-999,-99.99,,,-99.99,,2013-01-02 22:22:00,
2013-01-02 18:33:00,79.0,-99.9,30.00,ENE,78,12.0,16.0,-999,-99.99,,,-99.99,,2013-01-02 22:33:00,
2013-01-02 18:43:00,80.0,-99.9,30.00,East,100,14.0,16.0,-999,-99.99,,,-99.99,,2013-01-02 22:43:00,
2013-01-02 18:53:00,80.0,-99.9,30.01,ESE,110,12.0,15.0,-999,-99.99,,,-99.99,,2013-01-02 22:53:00,
2013-01-02 19:03:00,80.0,-99.9,30.01,ESE,111,12.0,15.0,-999,-99.99,,,-99.99,,2013-01-02 23:03:00,
2013-01-02 19:13:00,79.0,-99.9,30.02,East,94,13.0,15.0,-999,-99.99,,,-99.99,,2013-01-02 23:13:00,
2013-01-02 19:23:00,79.0,-99.9,30.02,ESE,106,11.0,13.0,-999,-99.99,,,-99.99,,2013-01-02 23:23:00,
2013-01-02 19:33:00,79.0,-99.9,30.02,ESE,109,10.0,12.0,-999,-99.99,,,-99.99,,2013-01-02 23:33:00,
2013-01-02 19:43:00,79.0,-99.9,30.03,ESE,107,11.0,12.0,-999,-99.99,,,-99.99,,2013-01-02 23:43:00,
2013-01-02 19:53:00,78.0,-99.9,30.03,ESE,122,9.0,11.0,-999,-99.99,,,-99.99,,2013-01-02 23:53:00,
2013-01-02 20:02:00,78.0,-99.9,30.03,ESE,109,8.0,11.0,-999,-99.99,,,-99.99,,2013-01-03 00:02:00,
2013-01-02 20:12:00,78.0,-99.9,30.04,ESE,102,7.0,8.0,-999,-99.99,,,-99.99,,2013-01-03 00:12:00,
2013-01-02 20:22:00,78.0,-99.9,30.04,ESE,106,8.0,9.0,-999,-99.99,,,-99.99,,2013-01-03 00:22:00,
2013-01-02 20:38:00,78.0,-99.9,30.04,ESE,107,9.0,11.0,-999,-99.99,,,-99.99,,2013-01-03 00:38:00,
2013-01-02 20:53:00,78.0,-99.9,30.05,ESE,118,5.0,7.0,-999,-99.99,,,-99.99,,2013-01-03 00:53:00,
2013-01-02 21:02:00,78.0,-99.9,30.05,ESE,119,7.0,9.0,-999,-99.99,,,-99.99,,2013-01-03 01:02:00,
2013-01-02 21:12:00,78.0,-99.9,30.06,ESE,123,7.0,9.0,-999,-99.99,,,-99.99,,2013-01-03 01:12:00,
2013-01-02 21:23:00,77.0,-99.9,30.06,ESE,123,6.0,8.0,-999,-99.99,,,-99.99,,2013-01-03 01:23:00,
2013-01-02 21:33:00,77.0,-99.9,30.06,SE,127,8.0,9.0,-999,-99.99,,,-99.99,,2013-01-03 01:33:00,
2013-01-02 21:43:00,77.0,-99.9,30.06,SE,127,6.0,8.0,-999,-99.99,,,-99.99,,2013-01-03 01:43:00,
2013-01-02 21:53:00,77.0,-99.9,30.06,SE,137,6.0,7.0,-999,-99.99,,,-99.99,,2013-01-03 01:53:00,
2013-01-02 22:02:00,77.0,-99.9,30.06,SE,142,5.0,7.0,-999,-99.99,,,-99.99,,2013-01-03 02:02:00,
2013-01-02 22:12:00,77.0,-99.9,30.07,SSE,151,5.0,6.0,-999,-99.99,,,-99.99,,2013-01-03 02:12:00,
2013-01-02 22:23:00,77.0,-99.9,30.07,SSE,155,6.0,7.0,-999,-99.99,,,-99.99,,2013-01-03 02:23:00,
2013-01-02 22:33:00,77.0,-99.9,30.07,SSE,151,6.0,7.0,-999,-99.99,,,-99.99,,2013-01-03 02:33:00,
2013-01-02 22:43:00,77.0,-99.9,30.07,SSE,151,6.0,7.0,-999,-99.99,,,-99.99,,2013-01-03 02:43:00,
2013-01-02 22:53:00,77.0,-99.9,30.07,SSE,151,6.0,7.0,-999,-99.99,,,-99.99,,2013-01-03 02:53:00,
2013-01-02 23:03:00,76.0,-99.9,30.06,SE,146,4.0,5.0,-999,-99.99,,,-99.99,,2013-01-03 03:03:00,
2013-01-02 23:12:00,76.0,-99.9,30.06,SE,134,5.0,6.0,-999,-99.99,,,-99.99,,2013-01-03 03:12:00,
2013-01-02 23:22:00,76.0,-99.9,30.06,SE,128,4.0,6.0,-999,-99.99,,,-99.99,,2013-01-03 03:22:00,
2013-01-02 23:47:00,76.0,-99.9,30.06,SSE,154,3.0,4.0,-999,-99.99,,,-99.99,,2013-01-03 03:47:00,
2013-01-02 23:53:00,75.0,-99.9,30.06,SSW,211,4.0,6.0,-999,-99.99,,,-99.99,,2013-01-03 03:53:00,